User: anonymous   Login
Location: Agendoh
(31.0664°N, 8.9343°W)
Time: 23:04:29
(UTC+00:00)
Language:

Hubble Space Telescope - Orbit

View from above orbital plane
View from above orbital plane
View from above satellite
View from above satellite

Ground track
Ground track

The orbit data is extracted from the following two-line orbital elements,

1 20580U 90037B   22146.48256594  .00003036  00000-0  16883-3 0  9993
2 20580  28.4702 314.3789 0002636 151.7513 236.3427 15.10509488562893
Epoch (UTC): 26 May 2022 11:34:53
Eccentricity: 0.0002636
inclination: 28.4702°
perigee height: 533 km
apogee height: 536 km
right ascension of ascending node: 314.3789°
argument of perigee: 151.7513°
revolutions per day: 15.10509488
mean anomaly at epoch: 236.3427°
orbit number at epoch: 56289

The dashed part of the orbit path shows where the satellite is in the earth's shadow,  

DLR